SCOUT G-1 DEB

Satellite information

Favourite Embed

Satellite Type and Status

DEBRISIN ORBIT

Key statistics

Satellite SCOUT G-1 DEB at a glance.

Uptime

13922

Days in orbit

Revolutions

≈ 14.2

Per day

Orbit

SSO

Sun Synchronous Orbit

Inclination

90.3

Latest

Satellite identification and parameters

Extended collection of information and parameters for SCOUT G-1 DEB.

Object identification

Identified? True

Debris? True

Object name: SCOUT G-1 DEB

International designator: 1987-080P

Object number (NORAD): 29211

Object ID (CCSDS): 29211

Country: UNITED STATES OF AMERICA (US)

Current information (Y/N): Y

RCS size: SMALL

Orbital parameters

Period: 101.661 minutes

Inclination: 90.3337 deg

SMA: 7215.43 km

Apoapsis: 887.009 km

Periapsis: 787.581 km

RAAN: 110.5492 deg

Eccentricy: 0.00689

Argument of periapsis: 88.2206 deg

Mean anomaly: 272.6873 deg

Mean motion: 14.16476687 rev/day

Mean motion (dot): 0.000134 rev/day2

B* drag term: 0.0065696206 1/REarth

Two-line elements (TLE)

Creation date: Oct. 20, 2025, 2:10 a.m.

Reference frame: TEME

Reference center: EARTH

Epoch: Oct. 19, 2025, 6:18 p.m. UTC

TLE line 0: 0 SCOUT G-1 DEB

TLE line 1: 1 29211U 87080P 25292.76269502 .00013400 00000-0 65696-2 0 9997

TLE line 2: 2 29211 90.3337 110.5492 0068900 88.2206 272.6873 14.16476687 69294

Live tracking on map

Real-time ground track for satellite SCOUT G-1 DEB.

In-orbit conjunctions

A list of the most updated potential collisions computed for object SCOUT G-1 DEB.

Target Orbit TCA Probability of collision Miss distance Type
CZ-6A R/B SSO 2024-09-30 19:42:24 0.0001139673 247.0 (m) ROCKET BODY
ATLAS CENTAUR 2 R/B LEO 2024-09-25 08:17:38 0.0001502281 501.0 (m) ROCKET BODY
FENGYUN 1C DEB SSO 2024-08-04 18:08:51 0.0001695398 80.0 (m) DEBRIS

Associated space launch

The Transit-O series of satellites that closely followed the design of Transit 5C-1 were also called “Oscars” (Oscar is the phonetic alphabet for “O”, i. e., operational). They were also called NNS (Navy Navigation Satellite) or shortened NavSat.

SCOUT G-1 DEB was lifted into orbit during the mission ‘Scout G-1 | Transit-O 27,29’, on board a Scout G-1 space rocket.

The launch took place on Sept. 16, 1987, 7:22 p.m. from Space Launch Complex 5.

For more information about the launch, click the button.

Launch to space Scout G-1 | Transit-O 27,29
Scout G-1 | Transit-O 27,29

Agency: N/A

Status: Launch Successful

Launch date: Sept. 16, 1987, 7:22 p.m. UTC

Rocket: Scout G-1

Launch pad: Space Launch Complex 5

Location: Vandenberg SFB, CA, USA

...

Latest news about this satellite

There are no fresh news available about this satellite. Check back as we update our databases every day.


Newsletter sign-up

Weekly statistics, charts and insights to help you stay on top of the space industry.